Regional Weather Roundup
Issued by NWS

Home | Current Version | Previous Version | Graphics & Text | Print | Product List | Glossary Off
Versions: 1 2 3 4 5 6 7 8 9 10 11 12 13 14 15 16 17 18 19 20 21 22 23 24 25 26 27 28 29 30 31 32 33 34 35 36 37 38 39 40 41 42 43 44 45 46 47 48 49 50

000
ASUS43 KMKX 290600
RWRWI

WISCONSIN REGIONAL WEATHER ROUNDUP
NATIONAL WEATHER SERVICE MILWAUKEE/SULLIVAN WI
1200 AM CST MON DEC 29 2014

NOTE: "FAIR" INDICATES FEW OR NO CLOUDS BELOW 12,000 FEET WITH NO
SIGNIFICANT WEATHER AND/OR OBSTRUCTIONS TO VISIBILITY.

WIZ001-002-006>008-014>016-023>028-290700-
NORTHWEST WISCONSIN

CITY           SKY/WX    TMP DP  RH WIND       PRES   REMARKS
SUPERIOR ARPT  CLEAR      4  -4  66 N3        30.41R
ASHLAND        CLEAR     -1  -6  79 W5        30.35S WCI -11
6HR MIN TEMP:  -2; 6HR MAX TEMP:   5;

HAYWARD        CLEAR     -8 -13  78 CALM      30.33R
6HR MIN TEMP:  -9; 6HR MAX TEMP:   4;

SIREN          PTCLDY    -4  -7  84 CALM      30.38R
CUMBERLAND     CLEAR     -2  -8  78 NW3       30.33R
RICE LAKE      CLEAR      1  -5  77 NW6       30.36R WCI -11
6HR MIN TEMP:  -1; 6HR MAX TEMP:  12;

CHETEK         CLEAR     -1  -5  85 CALM      30.34S
LADYSMITH      PTCLDY    -6 -10  84 CALM      30.33R
6HR MIN TEMP:  -9; 6HR MAX TEMP:  13;

EAU CLAIRE     MOCLDY     3  -2  79 CALM      30.35R
6HR MIN TEMP:  -1; 6HR MAX TEMP:  12;

MENOMONIE      PTCLDY     4   0  83 NW5       30.36R WCI  -5
6HR MIN TEMP:   4; 6HR MAX TEMP:  15;

NEW RICHMOND   MOCLDY     4  -4  69 N7        30.36R WCI  -8
OSCEOLA        MOCLDY    -1  -4  87 N3        30.41R
$$

WIZ003>005-009-010-017-018-290700-
NORTH CENTRAL WISCONSIN

CITY           SKY/WX    TMP DP  RH WIND       PRES   REMARKS
MANITOWISH WTR PTCLDY   -15 -20  78 CALM      30.24R
ARBOR VITAE    PTCLDY    -4  -8  82 CALM      30.24R
WOODRUFF       PTCLDY    -4  -8  82 CALM      30.24R
RHINELANDER    PTCLDY    -6  -9  86 CALM      30.24S
6HR MIN TEMP: -10; 6HR MAX TEMP:   9;

EAGLE RIVER    MOCLDY    -4  -8  80 CALM      30.22S
LAND O LAKES   FLURRIES   2  -1  84 SW3       30.22R
PHILLIPS       PTCLDY   -12 -15  84 CALM      30.27R
6HR MIN TEMP: -13; 6HR MAX TEMP:   9;

TOMAHAWK       MOCLDY   -10 -14  82 CALM      30.27R
MEDFORD        PTCLDY   N/A N/A N/A N3        30.27R
MERRILL        MOCLDY    -5  -8  86 CALM      30.27S
$$

WIZ029-030-035-036-043>047-290700-
CENTRAL WISCONSIN

CITY           SKY/WX    TMP DP  RH WIND       PRES   REMARKS
WAUSAU         PTCLDY     4   1  88 NW5       30.28R WCI  -5
6HR MIN TEMP:   4; 6HR MAX TEMP:  15;

MOSINEE        PTCLDY     7   5  92 NW3       30.29R
MARSHFIELD     PTCLDY     8   4  83 NE7       30.29R WCI  -3
6HR MIN TEMP:   3; 6HR MAX TEMP:  15;

STEVENS POINT  PTCLDY     9   6  87 N3        30.30R
WAUPACA        PTCLDY    17  11  80 NW3       30.31R
6HR MIN TEMP:  17; 6HR MAX TEMP:  26;

WAUTOMA        NOT AVBL
WISC RAPIDS    PTCLDY    12   6  77 N6        30.32R WCI   3
6HR MIN TEMP:  12; 6HR MAX TEMP:  20;

CAMP DOUGLAS   NOT AVBL
$$

WIZ011>013-019>022-031-037>040-048>050-290700-
NORTHEAST WISCONSIN

CITY           SKY/WX    TMP DP  RH WIND       PRES   REMARKS
ANTIGO         PTCLDY    -7 -10  86 NW5       30.24S WCI -18
SHAWANO        PTCLDY    14   9  79 CALM      30.31R
6HR MIN TEMP:  14; 6HR MAX TEMP:  24;

OCONTO         CLEAR     13   7  76 N3        30.31S
STURGEON BAY   CLEAR     16   3  57 N12       30.30S WCI   3
6HR MIN TEMP:  16; 6HR MAX TEMP:  25;

GREEN BAY      CLEAR     16   7  67 N9        30.31R WCI   4
6HR MIN TEMP:  16; 6HR MAX TEMP:  25;

MANITOWOC      NOT AVBL
APPLETON       CLEAR     18  10  73 N12       30.29R WCI   5
CLINTONVILLE   PTCLDY    14   7  73 N3        30.31R
OSHKOSH        PTCLDY    19  13  77 N6        30.29R WCI  11
6HR MIN TEMP:  19; 6HR MAX TEMP:  28;

$$

WIZ032>034-041-042-053>061-290700-
SOUTHWEST WISCONSIN

CITY           SKY/WX    TMP DP  RH WIND       PRES   REMARKS
LA CROSSE      MOCLDY    18  14  84 N7        30.34R WCI   9
6HR MIN TEMP:  15; 6HR MAX TEMP:  24;

SPARTA         MOCLDY    15  13  92 CALM      30.32S
VIROQUA        MOCLDY    19  15  85 NE6       30.27R WCI  11
BOSCOBEL       CLOUDY    24  16  71 NE7       30.30R WCI  16
6HR MIN TEMP:  20; 6HR MAX TEMP:  25;

PRAIRIE DU CHI CLOUDY    25  19  77 N3        30.29S
PLATTEVILLE    CLOUDY    26  22  85 CALM      30.25S
$$

WIZ056-057-062-063-064-067-068-290700-
SOUTH CENTRAL WISCONSIN

CITY           SKY/WX    TMP DP  RH WIND       PRES   REMARKS
REEDSBURG      MOCLDY    19  14  78 N3        30.29R
BARABOO/DELLS  MOCLDY    20  13  75 N3        30.28R
LONE ROCK      NOT AVBL
MINERAL POINT  MOCLDY    27  21  80 N6        30.24S WCI  20
MADISON        CLOUDY    24  17  74 N15       30.27R WCI  11
6HR MIN TEMP:  24; 6HR MAX TEMP:  29;

MIDDLETON      CLOUDY    27  20  77 N9        30.26R WCI  17
WATERTOWN      CLOUDY    25  20  82 N9        30.26R WCI  16
MONROE         MOCLDY    27  21  80 N3        30.24R
JANESVILLE     CLOUDY    25  21  86 CALM      30.25R
$$

WIZ051-052-058>065-066-070>072-290700-
SOUTHEAST WISCONSIN

CITY           SKY/WX    TMP DP  RH WIND       PRES   REMARKS
MILWAUKEE      CLOUDY    27  19  72 NW6       30.25S WCI  20
6HR MIN TEMP:  24; 6HR MAX TEMP:  29;

WAUKESHA       CLOUDY    23  19  86 CALM      30.26R
MILWAUKEE/TIMM CLOUDY    28  21  74 N9        30.26S WCI  20
RACINE         PTCLDY    23  17  78 NW3       30.27R
6HR MIN TEMP:  23; 6HR MAX TEMP:  29;

BURLINGTON     CLOUDY    20  19  96 CALM      30.25S
KENOSHA        CLOUDY    26  19  74 N3        30.25S
6HR MIN TEMP:  25; 6HR MAX TEMP:  29;

FOND DU LAC    PTCLDY    21  13  71 N8        30.29R WCI  11
6HR MIN TEMP:  21; 6HR MAX TEMP:  28;

SHEBOYGAN      PTCLDY    22  15  75 N9        30.28R WCI  12
6HR MIN TEMP:  21; 6HR MAX TEMP:  28;

WEST BEND      CLOUDY    27  19  74 NW5       30.26R WCI  21
JUNEAU         PTCLDY    23  18  81 NW9       30.28R WCI  13
$$

LSZ147-162-290700-
LAKE SUPERIOR

STATION/POSITION TIME  TEMP    WIND        PRES    WAVE
                       AIR SEA DIR/SP/G            HT/PER
                 (UTC) (F)     (DEG/KT/KT) (MB)    (FT/S)
DEVILS ISLAND    0500    9     320/ 13/ 16 1029.4R
PORT WING        0500   11     320/ 12/ 14 1028.4R
SAXON HARBOR     0500    7     210/  5/  7 1027.4R
$$

LMZ867-665-643>646-290700-
LAKE MICHIGAN

STATION/POSITION TIME  TEMP    WIND        PRES    WAVE
                       AIR SEA DIR/SP/G            HT/PER
                 (UTC) (F)     (DEG/KT/KT) (MB)    (FT/S)
CHAMBERS ISLAND  0500   16     310/ 12/ 15 1025.7R
NORTHPORT PIER   0509   19     330/ 16/ 21 1025.4R
SISTER BAY       0513          340/ 17/ 23   N/A
ALGOMA LAKESHORE 0415          350/  9/ 11   N/A
KEWAUNEE LAKESHO 0500   19     340/  9/ 13 1024.5R
SHEBOYGAN LAKESH 0500   25 36  330/ 10/ 12 1026.2R
PORT WASHINGTON  0500   28     360/  5/  8 1025.4R
MILWAUKEE LAKESH 0500   29     320/  3/  4   N/A
KENOSHA   LAKESH 0500   29     330/  6/  9 1024.4R
$$

TC  - TEMPERATURE IN CELSIUS
VSB - VISIBILITY IN STATUTE MILES
WCI - WIND CHILL INDEX
HX  - HEAT INDEX



USA.gov is the U.S. government's official web portal to all federal, state and local government web resources and services.